[[{"header":{"parameterUnit":"m.s-1","parameterCategory":1,"la1":30.2991,"la2":30.254,"lo1":-89.0895,"lo2":-89.0444,"dy":0.0017,"dx":0.0017,"nx":28,"ny":28,"refTime":"2024-05-10T09:00:00:Z","depth":0,"parameterNumber":2,"parameterNumberName":"U-component_of_WINDS"},"data":[0,0,0,0,0,0,0,0,0,0,0,0,0,0,0,0,0,0,0,0,0,0,0,0,0,0,0,0,0,0,0,0,0,0,0,0,0,0,0,0,0,0,0,0,0,0,0,0,0,0,0,0,0,0,0,0,0,0,-2.9813,-2.9813,0,-2.9819,-2.9819,-2.9819,-2.97,-2.9697,-2.9693,-2.969,-2.9697,-2.97,-2.9703,0,0,0,0,0,0,0,0,0,0,0,0,0,-2.9699,-2.9701,-2.9813,-2.9813,-2.9813,-2.9819,-2.9819,-2.9819,-2.97,-2.9696,-2.9692,-2.9689,-2.9696,-2.97,-2.9704,0,0,0,0,0,0,0,0,0,0,0,0,0,-2.9731,-2.9702,-2.9813,-2.9755,-2.9749,-2.9819,-2.9819,-2.9819,-2.9701,-2.9696,-2.9691,-2.9687,-2.9695,-2.9699,-2.9704,-2.983,0,0,-2.9719,-2.9721,0,0,0,0,0,0,0,0,-2.9729,-2.9735,-2.9763,-2.9759,-2.9753,-2.9754,-2.9781,-2.9823,-2.9702,-2.972,-2.969,-2.9685,-2.972,-2.9722,-2.9734,-2.983,-2.9831,-2.9719,-2.9722,-2.9724,-2.9725,0,0,0,0,0,0,0,-2.9727,-2.9734,-2.9815,-2.9764,-2.9758,-2.9728,-2.9727,-2.9788,-2.9747,-2.9718,-2.9709,-2.9711,-2.9716,-2.973,-2.9733,-2.9831,-2.9719,-2.9723,-2.9726,-2.9728,-3.0029,-3.0033,0,0,0,0,0,0,-2.9733,-2.9733,-2.9815,-2.9815,-2.9729,-2.9734,-2.9733,-2.9758,-2.9746,-2.9739,-2.9715,-2.9706,-2.9724,-2.9728,-2.9733,-2.9878,-2.9724,-2.9728,-2.9731,-3.0024,-3.003,-3.0035,0,0,0,0,0,0,-2.9731,-2.9741,-2.9815,-2.9772,-2.9779,-2.9741,-2.977,-2.9761,-2.9774,-2.9744,-2.9736,-2.9737,-2.972,-2.9726,-2.9806,-2.9876,-2.9731,-2.9735,-3.0017,-3.0025,-3.0033,-3.017,0,0,0,0,0,0,-2.9728,-2.9741,-2.9789,-2.9774,-2.9782,-2.9889,-2.9775,-2.9765,-2.9783,-2.977,-2.9762,-2.9756,-2.9717,-2.98,-2.9811,-2.988,-2.9739,-3.0011,-3.0021,-3.003,-3.0159,-3.0181,-3.02,0,0,0,0,0,-2.9724,-2.9828,-2.9792,-2.9802,-2.9841,-2.9893,-2.9897,-2.985,-2.9789,-2.9836,-2.9816,-2.9756,-2.9867,-2.9809,-2.9821,-2.9893,-3.0006,-3.0018,-3.0029,-3.0149,-3.0177,-3.02,0,0,0,0,0,0,-2.9853,-2.9825,-2.9785,-2.9887,-2.9893,-2.9873,-2.9931,-2.9881,-2.9905,-2.9892,-2.9833,-2.9832,-2.9921,-2.9915,-2.985,-3.0013,-2.9926,-2.994,-3.0013,-3.0039,-3.0059,-3.0058,-2.9743,0,0,0,0,0,-2.9893,-2.9938,-2.9911,-3.0003,-3.0009,-2.997,-2.9991,-2.9954,-2.9958,-2.996,-2.9946,-2.9953,-2.9988,-3.0014,-3.0045,-3.0158,-3.0153,-3.0213,-3.0234,-3.0251,-3.0264,-3.0321,-3.0346,-3.0073,-3.0073,-3.0073,0,0,-2.9976,-2.9967,-2.9999,-3.0029,-3.0029,-3.0076,-2.9973,-3.0027,-3.0061,-2.9968,-3.0042,-3.0033,-3.0036,-3.0132,-3.0174,-3.013,-3.0338,-3.0266,-3.028,-3.0283,-3.0335,-3.0361,-3.0384,-3.0081,-3.008,-3.0078,0,0,-3.0152,-3.015,-3.0225,-3.0228,-3.023,-3.0203,-3.0221,-3.0208,-3.0198,-3.0271,-3.0202,-3.0242,-3.0306,-3.031,-3.0321,-3.0498,-3.0443,-3.051,-3.0618,-3.0675,-3.0696,-3.0715,-3.0776,-3.0799,-3.0523,-3.0523,-3.0524,0,-3.0255,-3.0323,-3.0271,-3.033,-3.0344,-3.0262,-3.0337,-3.0343,-3.0355,-3.0367,-3.0318,-3.0395,-3.0391,-3.0487,-3.053,-3.0542,-3.056,-3.051,-3.0697,-3.0716,-3.0732,-3.079,-3.0813,-3.0531,-3.0531,-3.053,-3.0529,0,-3.0449,-3.0498,-3.0559,-3.0572,-3.0593,-3.0661,-3.0618,-3.0647,-3.0608,-3.0586,-3.0661,-3.0654,-3.0682,-3.0702,-3.0666,-3.0792,-3.0765,-3.0708,-3.0619,-3.0767,-3.082,-3.0842,-3.0543,-3.054,-3.0538,-3.0536,0,0,-3.0706,-3.0688,-3.0711,-3.0715,-3.0711,-3.0747,-3.081,-3.0837,-3.0862,-3.0874,-3.0924,-3.098,-3.0926,-3.0939,-3.0901,-3.0951,-3.1089,-3.0887,-3.0886,-3.0924,-3.1227,-3.1269,-3.1295,-3.1053,-3.1057,-3.1061,-3.1226,0,-3.0874,-3.098,-3.0935,-3.1045,-3.1088,-3.101,-3.1065,-3.1068,-3.105,-3.1084,-3.1063,-3.1103,-3.103,-3.1037,-3.1083,-3.1063,-3.1149,-3.1051,-3.1099,-3.1101,-3.1099,-3.1323,-3.1368,-3.1524,-3.1246,-3.125,-3.1252,0,-3.1085,-3.1104,-3.1219,-3.1205,-3.1222,-3.1272,-3.1292,-3.1326,-3.1327,-3.131,-3.1324,-3.1275,-3.1336,-3.1249,-3.1331,-3.1265,-3.1282,-3.1275,-3.128,-3.1281,-3.1185,-3.1329,-3.1573,-3.1596,-3.1285,-3.1282,-3.128,0,-3.1258,-3.1313,-3.1388,-3.1394,-3.1381,-3.1417,-3.1414,-3.141,-3.1429,-3.1447,-3.1458,-3.1484,-3.1497,-3.1518,-3.1477,-3.1418,-3.1564,-3.1474,-3.1551,-3.1552,-3.1584,-3.1582,-3.1832,-3.1598,-3.1598,-3.1597,-3.1597,0,-3.1451,-3.1523,-3.1465,-3.1511,-3.159,-3.1537,-3.1617,-3.1604,-3.1602,-3.1644,-3.1579,-3.162,-3.1564,-3.16,-3.1568,-3.164,-3.1647,-3.1634,-3.1625,-3.1639,-3.1641,-3.1648,-3.1636,-3.1604,-3.1602,-3.1601,-3.16,0,-3.1656,-3.1621,-3.1697,-3.1677,-3.1674,-3.1733,-3.1716,-3.1758,-3.1735,-3.1789,-3.1799,-3.1763,-3.1801,-3.1762,-3.1799,-3.1777,-3.1873,-3.1849,-3.1872,-3.1865,-3.1943,-3.1935,-3.2205,-3.2237,-3.1985,-3.1987,-3.1989,0,-3.1781,-3.1834,-3.1821,-3.1844,-3.1844,-3.1882,-3.19,-3.185,-3.1872,-3.1877,-3.1918,-3.1951,-3.1974,-3.2038,-3.2015,-3.2043,-3.2017,-3.211,-3.2021,-3.2033,-3.2016,-3.2013,-3.2017,-3.2128,-3.2131,-3.2133,-3.2135,0,-3.2004,-3.1983,-3.2012,-3.2034,-3.2058,-3.2073,-3.2083,-3.2106,-3.2054,-3.2082,-3.212,-3.2138,-3.2174,-3.2207,-3.2227,-3.2222,-3.217,-3.2164,-3.2182,-3.2197,-3.2207,-3.2201,-3.192,-3.2157,-3.2155,-3.2153,-3.2152,-3.2151,-3.2171,-3.2215,-3.2211,-3.2245,-3.2247,-3.2258,-3.2296,-3.2277,-3.2308,-3.2332,-3.2301,-3.2348,-3.2347,-3.2368,-3.237,-3.2406,-3.2366,-3.2394,-3.2401,-3.2408,-3.2418,-3.2203,-3.2409,-3.2409,-3.2408,-3.2407,-3.2407,0,-3.239,-3.2383,-3.2415,-3.2431,-3.2457,-3.2406,-3.2414,-3.2439,-3.2481,-3.2484,-3.2508,-3.2551,-3.2583,-3.2562,-3.2588,-3.2621,-3.2597,-3.2629,-3.2625,-3.2625,-3.2453,-3.2433,-3.2647,-3.2647,-3.2647,-3.2647,-3.2647,-3.2647,-3.2506,-3.2576,-3.2555,-3.2626,-3.2619,-3.2663,-3.2672,-3.2682,-3.2684,-3.2734,-3.276,-3.2746,-3.274,-3.2765,-3.2791,-3.2784,-3.2796,-3.2837,-3.2821,-3.2661,-3.2637,-3.2615,-3.2595,-3.284,-3.2841,-3.299,-3.2991,-3.2992]},{"header":{"parameterUnit":"m.s-1","parameterCategory":1,"la1":30.2991,"la2":30.254,"lo1":-89.0895,"lo2":-89.0444,"dy":0.0017,"dx":0.0017,"nx":28,"ny":28,"refTime":"2024-05-10T09:00:00:Z","depth":0,"parameterNumber":3,"parameterNumberName":"V-component_of_WINDS"},"data":[0,0,0,0,0,0,0,0,0,0,0,0,0,0,0,0,0,0,0,0,0,0,0,0,0,0,0,0,0,0,0,0,0,0,0,0,0,0,0,0,0,0,0,0,0,0,0,0,0,0,0,0,0,0,0,0,0,0,-1.4055,-1.4056,0,-1.4117,-1.4117,-1.4118,-1.4137,-1.4137,-1.4136,-1.4136,-1.4199,-1.4201,-1.4203,0,0,0,0,0,0,0,0,0,0,0,0,0,-1.3953,-1.3955,-1.4055,-1.4056,-1.4057,-1.4116,-1.4117,-1.4118,-1.4137,-1.4137,-1.4136,-1.4136,-1.4198,-1.42,-1.4203,0,0,0,0,0,0,0,0,0,0,0,0,0,-1.4004,-1.3956,-1.4055,-1.4073,-1.4076,-1.4116,-1.4117,-1.4118,-1.4137,-1.4137,-1.4136,-1.4136,-1.4197,-1.42,-1.4203,-1.423,0,0,-1.4212,-1.4213,0,0,0,0,0,0,0,0,-1.4002,-1.4008,-1.407,-1.4072,-1.4075,-1.4119,-1.4104,-1.4156,-1.4137,-1.4114,-1.4136,-1.4136,-1.4173,-1.4177,-1.419,-1.4233,-1.4236,-1.4212,-1.4214,-1.4215,-1.4216,0,0,0,0,0,0,0,-1.3998,-1.4006,-1.4079,-1.4071,-1.4074,-1.4078,-1.4085,-1.4114,-1.4145,-1.4116,-1.4117,-1.4124,-1.4174,-1.4187,-1.4192,-1.4237,-1.4212,-1.4215,-1.4217,-1.4218,-1.4303,-1.4304,0,0,0,0,0,0,-1.3991,-1.4003,-1.4078,-1.4081,-1.4036,-1.408,-1.4088,-1.4105,-1.4145,-1.415,-1.4125,-1.4125,-1.4182,-1.4188,-1.4194,-1.4227,-1.4215,-1.4218,-1.422,-1.4303,-1.4303,-1.4304,0,0,0,0,0,0,-1.3989,-1.3998,-1.4075,-1.4042,-1.4053,-1.4083,-1.4102,-1.4106,-1.412,-1.4151,-1.4157,-1.4133,-1.4182,-1.419,-1.4221,-1.423,-1.4219,-1.4222,-1.4302,-1.4303,-1.4304,-1.4294,0,0,0,0,0,0,-1.3986,-1.3997,-1.4008,-1.4042,-1.4054,-1.4101,-1.4102,-1.4108,-1.4125,-1.4126,-1.416,-1.4166,-1.4182,-1.4216,-1.4223,-1.4233,-1.4224,-1.4302,-1.4303,-1.4303,-1.4294,-1.4294,-1.4295,0,0,0,0,0,-1.3982,-1.4003,-1.4008,-1.4017,-1.4068,-1.4102,-1.4108,-1.4127,-1.4125,-1.4136,-1.4156,-1.4164,-1.4227,-1.4219,-1.4228,-1.4238,-1.4301,-1.4302,-1.4303,-1.4293,-1.4294,-1.4295,0,0,0,0,0,0,-1.3969,-1.4008,-1.4014,-1.4047,-1.4071,-1.4105,-1.4119,-1.4128,-1.4153,-1.4153,-1.4175,-1.4183,-1.4212,-1.4228,-1.4218,-1.4266,-1.4264,-1.4267,-1.4254,-1.4255,-1.4256,-1.4251,-1.4227,0,0,0,0,0,-1.397,-1.3993,-1.4026,-1.4052,-1.4063,-1.4089,-1.4104,-1.4117,-1.4142,-1.4153,-1.4175,-1.4199,-1.4225,-1.4241,-1.4266,-1.4296,-1.4304,-1.4308,-1.4308,-1.4309,-1.4311,-1.4327,-1.4329,-1.4308,-1.4308,-1.4308,0,0,-1.3971,-1.3996,-1.4009,-1.4049,-1.4069,-1.4093,-1.4097,-1.4123,-1.414,-1.4156,-1.4187,-1.4204,-1.4233,-1.4263,-1.4278,-1.4278,-1.4318,-1.431,-1.431,-1.4312,-1.4329,-1.4331,-1.4332,-1.4309,-1.4309,-1.4308,0,0,-1.3987,-1.4008,-1.4031,-1.4051,-1.4081,-1.4097,-1.4103,-1.4136,-1.4147,-1.4178,-1.419,-1.4211,-1.4255,-1.4274,-1.429,-1.4311,-1.432,-1.4319,-1.4322,-1.4338,-1.434,-1.4341,-1.4348,-1.435,-1.4321,-1.4321,-1.4321,0,-1.3985,-1.4022,-1.4042,-1.4066,-1.4083,-1.4098,-1.4121,-1.4139,-1.4176,-1.4187,-1.4186,-1.424,-1.4261,-1.4295,-1.43,-1.4313,-1.4319,-1.4315,-1.4338,-1.434,-1.4341,-1.4348,-1.4351,-1.4321,-1.4321,-1.4321,-1.4321,0,-1.4018,-1.4043,-1.4058,-1.4092,-1.4111,-1.4135,-1.4157,-1.4173,-1.4184,-1.42,-1.4231,-1.4256,-1.4286,-1.4295,-1.4306,-1.4331,-1.433,-1.4333,-1.4332,-1.4343,-1.4349,-1.4352,-1.432,-1.432,-1.432,-1.4321,0,0,-1.4027,-1.4072,-1.4077,-1.4092,-1.4126,-1.4145,-1.4169,-1.4198,-1.4211,-1.4236,-1.4256,-1.4291,-1.4294,-1.4312,-1.4325,-1.4339,-1.4353,-1.434,-1.4341,-1.4341,-1.4381,-1.4378,-1.4381,-1.4358,-1.4359,-1.436,-1.4379,0,-1.4047,-1.409,-1.4108,-1.4142,-1.4165,-1.4179,-1.42,-1.4222,-1.4238,-1.426,-1.4277,-1.4302,-1.4304,-1.4315,-1.4329,-1.4348,-1.4361,-1.4347,-1.4377,-1.4378,-1.4369,-1.4385,-1.4382,-1.4399,-1.4381,-1.4382,-1.4382,0,-1.4075,-1.4099,-1.4136,-1.4166,-1.4176,-1.4194,-1.4222,-1.4242,-1.4268,-1.4278,-1.4297,-1.4309,-1.4334,-1.4331,-1.4365,-1.4355,-1.4368,-1.438,-1.4381,-1.4384,-1.438,-1.4388,-1.4405,-1.4407,-1.4387,-1.4386,-1.4386,0,-1.4077,-1.4119,-1.4146,-1.4159,-1.4195,-1.4207,-1.4222,-1.4248,-1.4263,-1.4287,-1.4298,-1.4324,-1.4338,-1.4358,-1.4377,-1.4373,-1.4409,-1.4408,-1.4418,-1.4417,-1.4425,-1.4424,-1.4443,-1.4434,-1.4434,-1.4434,-1.4434,0,-1.4097,-1.4118,-1.4147,-1.4164,-1.4189,-1.4208,-1.4232,-1.4248,-1.427,-1.429,-1.4304,-1.4322,-1.4346,-1.4367,-1.4381,-1.4407,-1.4414,-1.4422,-1.4426,-1.4421,-1.442,-1.443,-1.4429,-1.4434,-1.4434,-1.4434,-1.4434,0,-1.4103,-1.4124,-1.4154,-1.4185,-1.4193,-1.421,-1.4236,-1.4253,-1.4269,-1.4293,-1.43,-1.4326,-1.4351,-1.4371,-1.4405,-1.4415,-1.4441,-1.4445,-1.4432,-1.4434,-1.4443,-1.4441,-1.4469,-1.4473,-1.4461,-1.4461,-1.4461,0,-1.4114,-1.4131,-1.4164,-1.4178,-1.4193,-1.4216,-1.4232,-1.4252,-1.4268,-1.4297,-1.431,-1.4336,-1.4358,-1.4398,-1.4419,-1.4444,-1.4449,-1.4457,-1.4453,-1.4447,-1.4449,-1.4447,-1.4449,-1.4457,-1.4457,-1.4457,-1.4457,0,-1.4131,-1.414,-1.4163,-1.4189,-1.4207,-1.4229,-1.425,-1.4261,-1.4285,-1.4302,-1.4328,-1.4345,-1.4378,-1.4404,-1.4431,-1.4447,-1.4456,-1.4458,-1.4462,-1.4457,-1.4448,-1.4452,-1.4433,-1.4458,-1.4458,-1.4458,-1.4458,-1.4458,-1.414,-1.4155,-1.418,-1.4205,-1.4223,-1.4243,-1.4259,-1.4277,-1.4299,-1.4328,-1.4338,-1.4364,-1.4388,-1.4426,-1.4441,-1.4462,-1.4463,-1.4468,-1.447,-1.447,-1.447,-1.4445,-1.4467,-1.4467,-1.4467,-1.4467,-1.4467,0,-1.4157,-1.4174,-1.4196,-1.4225,-1.4244,-1.4251,-1.4275,-1.429,-1.4313,-1.4335,-1.4356,-1.4385,-1.441,-1.4433,-1.4458,-1.447,-1.4475,-1.4476,-1.4476,-1.4479,-1.4468,-1.4462,-1.4472,-1.4472,-1.4472,-1.4472,-1.4472,-1.4472,-1.4169,-1.4194,-1.4206,-1.4241,-1.4257,-1.4283,-1.4296,-1.4314,-1.4331,-1.4363,-1.4383,-1.4398,-1.442,-1.4447,-1.447,-1.4476,-1.4484,-1.4484,-1.4491,-1.4481,-1.448,-1.4479,-1.4474,-1.4486,-1.4486,-1.4501,-1.4501,-1.4501]}]]